This is the latest recevied weather packets stored in our database for station/object VHHH. If no packets are shown the sender has not sent any weather packets the latest 10 day(s).
| Time | Temp. | Humidity | Pressure | Rain* | Wind** | Luminosity | Snow |
|---|---|---|---|---|---|---|---|
| 1777816438 | - | - | 1005 hPa | - | - | - | - |
| 1777815832 | - | - | 1005 hPa | - | - | - | - |
| 1777815231 | 22.78° C | 94% | 1013 hPa | - | - | - | - |
| 1777814633 | 22.78° C | 94% | 1014 hPa | - | - | - | - |
| 1777814033 | 22.78° C | 94% | 1014 hPa | - | - | - | - |
| 1777813430 | 22.78° C | 94% | 1014 hPa | - | - | - | - |
| 1777812831 | 23.89° C | 83% | 1013 hPa | - | - | - | - |
| 1777812228 | 23.89° C | 83% | 1013 hPa | - | - | - | - |
| 1777811632 | 23.89° C | 83% | 1013 hPa | - | - | - | - |
| 1777811029 | 23.89° C | 83% | 1013 hPa | - | - | - | - |
| 1777810429 | 23.89° C | 88% | 1013 hPa | - | - | - | - |
| 1777809831 | 23.89° C | 88% | 1013 hPa | - | - | - | - |
| 1777809228 | 23.89° C | 83% | 1012 hPa | - | - | - | - |
| 1777808631 | 23.89° C | 83% | 1012 hPa | - | - | - | - |
| 1777808032 | 23.89° C | 83% | 1012 hPa | - | - | - | - |
| 1777807432 | 23.89° C | 83% | 1011 hPa | - | - | - | - |
| 1777806833 | 23.89° C | 83% | 1011 hPa | - | - | - | - |
| 1777806230 | 23.89° C | 83% | 1011 hPa | - | - | - | - |
| 1777805627 | 23.89° C | 83% | 1011 hPa | - | - | - | - |
| 1777805029 | 23.89° C | 83% | 1003 hPa | - | - | - | - |
| 1777804427 | 23.89° C | 83% | 1011 hPa | - | - | - | - |
| 1777803827 | 22.78° C | 94% | 1011 hPa | - | - | - | - |
| 1777803229 | 22.78° C | 94% | 1011 hPa | - | - | - | - |
| 1777802628 | 22.78° C | 94% | 1003 hPa | - | - | - | - |
| 1777802029 | 22.78° C | 88% | 1010 hPa | - | - | - | - |
* Rain since midnight (hover to see other rain measurements)
** Current wind speed in m/s (hover to see current wind gust speed)